This is the latest recevied weather packets stored in our database for station/object KC5AV. If no packets are shown the sender has not sent any weather packets the latest 10 day(s).
| Time | Temp. | Humidity | Pressure | Rain* | Wind** | Luminosity | Snow |
|---|---|---|---|---|---|---|---|
| 1777533769 | 16.11° C | 98% | 1014.8 hPa | 0.51 mm | - | 0 W/m² | - |
| 1777533465 | 16.11° C | 98% | 1014.8 hPa | 2.29 mm | - | 0 W/m² | - |
| 1777533161 | 16.11° C | 98% | 1014.8 hPa | 1.78 mm | - | 0 W/m² | - |
| 1777532859 | 16.11° C | 98% | 1014.7 hPa | 0.51 mm | - | 0 W/m² | - |
| 1777532555 | 16.11° C | 98% | 1015 hPa | 0 mm | - | 0 W/m² | - |
| 1777532252 | 16.11° C | 98% | 1014.8 hPa | 0 mm | - | 0 W/m² | - |
| 1777531949 | 16.11° C | 98% | 1014.6 hPa | 0 mm | - | 0 W/m² | - |
| 1777531034 | 16.11° C | 98% | 1015.6 hPa | 0 mm | - | 0 W/m² | - |
| 1777530732 | 16.11° C | 98% | 1015.3 hPa | 0 mm | - | 0 W/m² | - |
| 1777530429 | 16.11° C | 98% | 1015.3 hPa | 0 mm | - | 0 W/m² | - |
| 1777530124 | 16.67° C | 98% | 1015.6 hPa | 0 mm | - | 0 W/m² | - |
| 1777529821 | 16.11° C | 98% | 1015.3 hPa | 0 mm | - | 0 W/m² | - |
| 1777529430 | 16.11° C | 98% | 1015 hPa | 0.51 mm | - | 0 W/m² | - |
| 1777529127 | 16.11° C | 98% | 1015 hPa | 0.51 mm | - | 0 W/m² | - |
| 1777528823 | 16.11° C | 97% | 1014.9 hPa | 0.51 mm | - | 0 W/m² | - |
| 1777528520 | 16.11° C | 97% | 1015.1 hPa | 0 mm | - | 0 W/m² | - |
| 1777528218 | 16.67° C | 97% | 1014.8 hPa | 0 mm | - | 0 W/m² | - |
| 1777527914 | 16.67° C | 97% | 1015.1 hPa | 0 mm | - | 0 W/m² | - |
| 1777527610 | 16.67° C | 97% | 1015.1 hPa | 0 mm | - | 0 W/m² | - |
| 1777527305 | 16.67° C | 97% | 1015.2 hPa | 0.51 mm | - | 0 W/m² | - |
| 1777527001 | 16.67° C | 97% | 1015.1 hPa | 4.32 mm | - | 0 W/m² | - |
| 1777526697 | 16.67° C | 97% | 1014.7 hPa | 6.6 mm | - | 0 W/m² | - |
| 1777526393 | 16.67° C | 97% | 1015.3 hPa | 14.99 mm | - | 0 W/m² | - |
| 1777526088 | 16.67° C | 97% | 1015.4 hPa | 14.48 mm | - | 0 W/m² | - |
| 1777525784 | 16.67° C | 96% | 1015.4 hPa | 9.65 mm | - | 0 W/m² | - |
* Rain latest hour (hover to see other rain measurements)
** Current wind speed in m/s (hover to see current wind gust speed)